Location: Codford Saint Peter
(51.1597°N, 2.0531°W)
Time: 06:04:55
(UTC+00:00)

Envisat - Pass Details

Date: 02 February 2022
Orbit: 764 x 765 km, 98.2° (Epoch: 22 May)

Event Time Altitude Azimuth Distance (km) Brightness Sun altitude
Rises 06:34:28 0° 6° (N) 3,244 6.2 -11.1°
Reaches altitude 10° 06:37:09 10° 353° (N) 2,314 5.3 -10.7°
Maximum altitude 06:41:08 24° 301° (WNW) 1,560 4.0 -10.1°
Drops below altitude 10° 06:45:07 10° 249° (WSW) 2,303 5.0 -9.5°
Sets 06:47:47 0° 236° (SW) 3,226 5.8 -9.1°
